• Join FlightAware (Why Join?)
  • Login
  • US Flag 
12:42AM EST


 

Airport Tracker/Info


-or-


 

Live Flight TrackerFlight Track Log ✈ RPA3275 ✈ 08-Jul-2013 ✈ KALB - KPHL

Flight Track Log - Related Links

Times and Time Zones

All times are in EDT time to prevent confusion due to time zone crossing. See the RPA3275 flight status page for this flight to view local times or setup timezone preferences in your user account.

Time Position Orientation Groundspeed Altitude Reporting Facility
EDT Latitude Longitude Course Direction KTS MPH feet Rate Location/Type
07:37AM 42.7694 -73.8089 210° Southwest 168 193 1,100  Level Boston Center
07:38AM 42.8100 -73.9033 300° West 253 291 4,400 2,150 Climbing Boston Center
07:39AM 42.5068 -74.5778 220° Southwest  Level FlightAware Approximate
07:39AM 42.7939 -74.0019 257° West 260 299 7,300  Level Boston Center
07:40AM 42.3333 -74.7708 219° Southwest  Level FlightAware Approximate
07:40AM 42.7781 -74.1006 258° West 266 306 10,100  Level Boston Center
07:41AM 42.1567 -74.9577 210° Southwest  Level FlightAware Approximate
07:41AM 42.7594 -74.2189 258° West 278 320 11,800  Level Boston Center
07:42AM 41.9618 -75.1076 210° Southwest  Level FlightAware Approximate
07:42AM 42.7350 -74.3200 252° West 299 344 13,700  Level Boston Center
07:43AM 42.6606 -74.4081 221° Southwest 312 359 15,700 1,150 Climbing Boston Center
07:44AM 42.5989 -74.4794 220° Southwest 323 372 16,000 150 Climbing Boston Center
07:45AM 42.5222 -74.5669 220° Southwest 330 380 16,000  Level Boston Center
07:46AM 42.4519 -74.6461 220° Southwest 335 386 16,000  Level Boston Center
07:47AM 42.3836 -74.7253 221° Southwest 335 386 16,000  Level Boston Center
07:49AM 42.2844 -74.8381 220° Southwest 318 366 16,000  Level New York Center
07:50AM 42.2133 -74.9147 219° Southwest 318 366 16,000  Level New York Center
07:51AM 42.1333 -74.9964 217° Southwest 324 373 16,000  Level New York Center
07:52AM 42.0561 -75.0611 212° Southwest 330 380 16,000  Level New York Center
07:53AM 41.9789 -75.1258 212° Southwest 330 380 16,000  Level New York Center
07:54AM 41.9081 -75.1825 211° Southwest 330 380 16,000  Level New York Center
07:55AM 41.8308 -75.2442 211° Southwest 330 380 16,000  Level New York Center
07:56AM 41.7469 -75.3108 211° Southwest 330 380 16,000  Level New York Center
07:57AM 41.6697 -75.3750 212° Southwest 330 380 16,000 -446 Level New York Center
07:58AM 41.5944 -75.4364 211° Southwest 324 373 15,100 -1,230 Descending New York Center
07:59AM 41.5256 -75.4897 210° Southwest 324 373 13,500 -1,537 Descending New York Center
08:00AM 41.4503 -75.5508 211° Southwest 324 373 12,000 -763 Descending New York Center
08:01AM 41.3706 -75.6144 211° Southwest 319 367 12,000 -200 Level New York Center
08:02AM 41.3019 -75.6647 209° Southwest 319 367 11,600 -732 Descending New York Center
08:03AM 41.2067 -75.6494 173° South 298 343 10,500 -807 Descending New York Center
08:04AM 41.1286 -75.6244 166° South 308 354 10,000 -252 Descending New York Center
08:05AM 41.0461 -75.6022 169° South 317 365 10,000  Level New York Center
08:06AM 40.9514 -75.5761 168° South 312 359 10,000  Level New York Center
08:07AM 40.8753 -75.5544 168° South 317 365 10,000  Level New York Center
08:08AM 40.7928 -75.5294 167° South 312 359 10,000  Level New York Center
08:09AM 40.6981 -75.5008 167° South 317 365 10,000  Level New York Center
08:10AM 40.6136 -75.4786 169° South 317 365 10,000  Level New York Center
08:11AM 40.5269 -75.4536 168° South 317 365 10,000  Level New York Center
08:12AM 40.4550 -75.4325 167° South 312 359 10,000 -149 Level New York Center
08:13AM 40.3714 -75.3858 157° South 293 337 9,700 -787 Descending New York Center
08:14AM 40.2958 -75.3428 157° South 293 337 8,400 -1,261 Descending New York Center
08:15AM 40.2306 -75.3058 157° South 293 337 7,200 -712 Descending New York Center
08:16AM 40.1611 -75.2686 158° South 287 330 7,000 -102 Descending New York Center
08:17AM 40.1000 -75.2167 147° Southeast 260 299 7,000 -51 Level Philadelphia TRACON
08:18AM 40.1333 -75.1333 62° Northeast 272 313 6,900 -50 Descending Philadelphia TRACON
08:19AM 40.1833 -75.1500 346° North 223 257 6,900 -250 Level Philadelphia TRACON
08:20AM 40.1333 -75.2000 217° Southwest 233 268 6,400 -526 Descending Philadelphia TRACON
08:21AM 40.0833 -75.2000 180° South 234 269 5,900 -200 Descending Philadelphia TRACON
08:22AM 40.0167 -75.1833 169° South 207 238 6,000 48 Climbing Philadelphia TRACON
08:23AM 39.9833 -75.1333 131° Southeast 229 264 6,000 -150 Level Philadelphia TRACON
08:24AM 40.0000 -75.0500 75° East 232 267 5,700 -476 Descending Philadelphia TRACON
08:25AM 40.0167 -74.9667 75° East 229 264 5,000 -333 Descending Philadelphia TRACON
08:26AM 40.0167 -74.8833 90° East 227 261 5,000 -200 Level Philadelphia TRACON
08:27AM 39.9833 -74.8333 131° Southeast 212 244 4,600 -574 Descending Philadelphia TRACON
08:28AM 39.9500 -74.8667 217° Southwest 190 219 3,900 -365 Descending Philadelphia TRACON
08:29AM 39.9333 -74.9333 252° West 178 205 3,900 -240 Level Philadelphia TRACON
08:30AM 39.9167 -75.0000 252° West 166 191 3,400 -462 Descending Philadelphia TRACON